TimePDT,TemperatureF,Dew PointF,Humidity,Sea Level PressureIn,VisibilityMPH,Wind Direction,Wind SpeedMPH,Gust SpeedMPH,PrecipitationIn,Events,Conditions,WindDirDegrees,DateUTC
12:53 AM,41.0,30.0,65,30.35,10.0,Calm,Calm,-,N/A,,Clear,0,2012-10-04 07:53:00
1:53 AM,39.0,28.0,65,30.35,10.0,Calm,Calm,-,N/A,,Clear,0,2012-10-04 08:53:00
2:53 AM,36.0,28.9,76,30.34,10.0,North,3.5,-,N/A,,Clear,360,2012-10-04 09:53:00
3:53 AM,37.0,30.0,76,30.33,10.0,Calm,Calm,-,N/A,,Clear,0,2012-10-04 10:53:00
4:53 AM,36.0,28.9,76,30.33,10.0,Calm,Calm,-,N/A,,Clear,0,2012-10-04 11:53:00
5:53 AM,34.0,28.0,79,30.35,10.0,Calm,Calm,-,N/A,,Clear,0,2012-10-04 12:53:00
6:53 AM,34.0,28.9,82,30.35,10.0,Calm,Calm,-,N/A,,Clear,0,2012-10-04 13:53:00
7:53 AM,36.0,30.0,79,30.35,10.0,Calm,Calm,-,N/A,,Clear,0,2012-10-04 14:53:00
8:53 AM,44.1,27.0,51,30.36,10.0,Calm,Calm,-,N/A,,Clear,0,2012-10-04 15:53:00
9:53 AM,48.9,26.1,41,30.35,10.0,Calm,Calm,-,N/A,,Clear,0,2012-10-04 16:53:00
10:53 AM,54.0,19.9,26,30.33,9.0,East,10.4,16.1,N/A,,Clear,100,2012-10-04 17:53:00
11:53 AM,55.0,19.9,25,30.32,10.0,NE,4.6,-,N/A,,Clear,40,2012-10-04 18:53:00
12:53 PM,57.0,15.1,19,30.31,10.0,NE,5.8,20.7,N/A,,Clear,50,2012-10-04 19:53:00
1:53 PM,57.9,12.9,17,30.30,10.0,NE,11.5,20.7,N/A,,Clear,40,2012-10-04 20:53:00
2:53 PM,57.9,14.0,18,30.30,10.0,Variable,6.9,16.1,N/A,,Clear,0,2012-10-04 21:53:00
3:53 PM,59.0,16.0,19,30.29,10.0,Variable,5.8,-,N/A,,Clear,0,2012-10-04 22:53:00
4:53 PM,57.9,10.9,16,30.30,10.0,East,11.5,-,N/A,,Clear,80,2012-10-04 23:53:00
5:53 PM,54.0,12.9,20,30.31,10.0,ENE,8.1,-,N/A,,Clear,60,2012-10-05 00:53:00
6:53 PM,50.0,18.0,28,30.32,10.0,NNE,3.5,-,N/A,,Clear,30,2012-10-05 01:53:00
7:53 PM,48.0,16.0,28,30.32,10.0,Calm,Calm,-,N/A,,Clear,0,2012-10-05 02:53:00
8:53 PM,44.1,21.9,42,30.32,10.0,Calm,Calm,-,N/A,,Clear,0,2012-10-05 03:53:00
9:53 PM,41.0,21.9,47,30.33,10.0,Calm,Calm,-,N/A,,Clear,0,2012-10-05 04:53:00
10:53 PM,39.0,24.1,55,30.32,10.0,Calm,Calm,-,N/A,,Clear,0,2012-10-05 05:53:00
11:53 PM,39.9,24.1,53,30.34,10.0,Calm,Calm,-,N/A,,Clear,0,2012-10-05 06:53:00